Flag for U.S.A. Weather past 2 weeks in New City, New York, U.S.A.

Now
51 °F

Clear.


Feels Like: 51 °F
Forecast: 48 / 58 °F
Wind: No wind

Location: Westchester County Airport

Current Time: Oct 26, 2014 at 3:27:26 AM

Latest Report: Oct 26, 2014 at 2:56 AM


Visibility: 9 mi

Pressure: 29.53 "Hg

Humidity: 86%

Dew point: 47 °F

Location of New CityLocation

Historic Weather in New City — Graph

°F

New City temperature yesterday

Maximum temperature yesterday: 65 °F (at 2:56 PM)
Minimum temperature yesterday: 45 °F (at 12:56 AM)
Average temperature yesterday: 55 °F

Past Weeks' High & Low Weather Summary

 TemperatureHumidityPressure
High75 °F (Oct 15, 2:56 PM)100% (Oct 14, 6:56 AM)30.34 "Hg (Oct 14, 6:56 AM)
Low36 °F (Oct 20, 3:56 AM)39% (Oct 19, 3:56 PM)26.00 "Hg (Oct 17, 4:20 AM)
Average56 °F76%29.90 "Hg
* Reported Oct 11 1:56 AM — Oct 26 1:56 AM, New City, Weather by CustomWeather, © 2014

Note: Actual official high and low records may vary slightly from our data, if they occured in-between our weather recording intervals... More about our weather records

Advertising

New City weather history for previous 24 hours

 ConditionsComfort  
Time TempWeatherWind HumidityBarometerVisibility
1:56 AM
Oct 26
53 °FPartly cloudy.No wind83%29.54 "Hg10 mi
12:56 AM58 °FLight rain. Passing clouds.9 mph65%29.56 "Hg10 mi
11:56 PM
Oct 25
60 °FPassing clouds.6 mph53%29.54 "Hg10 mi
10:56 PM60 °FClear.5 mph53%29.56 "Hg10 mi
9:56 PM61 °FClear.5 mph52%29.58 "Hg10 mi
8:56 PM60 °FClear.No wind53%29.59 "Hg10 mi
7:56 PM59 °FPassing clouds.No wind56%29.62 "Hg10 mi
6:56 PM60 °FPassing clouds.No wind53%29.62 "Hg10 mi
5:56 PM62 °FPassing clouds.5 mph48%29.63 "Hg10 mi
4:56 PM65 °FSunny.5 mph42%29.64 "Hg10 mi
3:56 PM65 °FSunny.8 mph42%29.66 "Hg10 mi
2:56 PM65 °FPassing clouds.10 mph42%29.69 "Hg10 mi
1:56 PM64 °FPassing clouds.13 mph45%29.71 "Hg10 mi
12:56 PM63 °FSunny.9 mph47%29.75 "Hg10 mi
11:56 AM60 °FPassing clouds.13 mph52%29.80 "Hg10 mi
10:56 AM57 °FSunny.8 mph55%29.82 "Hg10 mi
9:56 AM54 °FSunny.5 mph62%29.83 "Hg10 mi
8:56 AM50 °FSunny.12 mph66%29.84 "Hg10 mi
7:56 AM46 °FClear.7 mph73%29.85 "Hg10 mi
6:56 AM45 °FClear.6 mph76%29.85 "Hg10 mi
5:56 AM46 °FClear.7 mph73%29.85 "Hg10 mi
4:56 AM46 °FClear.6 mph77%29.84 "Hg10 mi
3:56 AM45 °FClear.No wind86%29.84 "Hg10 mi
Weather by CustomWeather, © 2014

See weather overviewHow to use our weather pages